Cheboygan, MI

8:52 PM EDT on July 25, 2017 (GMT -0400)
Cheboygan

Weather History for KSLH - January, 2014

Change the Weather History Date:

Friday, January 17, 2014

  Actual Average (KMCD) Record (KMCD)
Temperature  
Mean Temperature 22 °F -  
Max Temperature 28 °F 21 °F 40 °F (1988)
Min Temperature 14 °F 10 °F -13 °F (1982)
Degree Days  
Heating Degree Days 43    
Moisture  
Dew Point 21 °F    
Average Humidity 90    
Maximum Humidity 100    
Minimum Humidity 83    
Precipitation  
Precipitation 0.00 in - - ()
Sea Level Pressure  
Sea Level Pressure 29.68 in    
Wind  
Wind Speed 4 mph (WNW)    
Max Wind Speed 13 mph    
Max Gust Speed 16 mph    
Visibility 7 miles    
Events Snow    
Averages and records for this station are not official NWS values.
T = Trace of Precipitation, MM = Missing Value Source: NWS Daily Summary

Daily Weather History Graph

Daily Weather History Graph

Search for Another Location

Airport or City:

Trip Planner

Search our weather history database for the weather conditions in past years. The results will help you decide how hot, cold, wet, or windy it might be!

Date:

Astronomy

Jan. 17, 2014 Rise Set
Actual Time 8:13 AM EST 5:23 PM EST
Civil Twilight 7:40 AM EST 5:56 PM EST
Nautical Twilight 7:03 AM EST 6:33 PM EST
Astronomical Twilight 6:28 AM EST 7:08 PM EST
Moon 7:16 PM EST (1/17) 8:34 AM EST (1/17)
Length of Visible Light 10h 15m
Length of Day
9h 09m
Full, 98% of the Moon is Illuminated
Jan 17
Full
Jan 24
Last Quarter
Jan 30
New
Feb 6
First Quarter
Feb 14
Full

Hourly Weather History & Observations

Time (EST) Temp. Windchill Dew Point Humidity Pressure Visibility Wind Dir Wind Speed Gust Speed Precip Events Conditions
12:15 AM 23.4 °F 17.4 °F 21.2 °F 91% 29.58 in 10.0 mi SE 4.6 mph - N/A   Overcast
12:35 AM 23.4 °F - 21.2 °F 91% 29.58 in 10.0 mi Calm Calm - N/A   Overcast
12:55 AM 23.4 °F 18.9 °F 21.2 °F 91% 29.57 in 10.0 mi East 3.5 mph - N/A   Overcast
1:15 AM 23.0 °F - 21.2 °F 93% 29.58 in 7.0 mi Calm Calm - N/A   Overcast
1:35 AM 23.0 °F - 21.2 °F 93% 29.58 in 7.0 mi Calm Calm - N/A   Overcast
1:55 AM 23.0 °F 18.4 °F 21.6 °F 94% 29.58 in 7.0 mi NNE 3.5 mph - N/A   Overcast
2:15 AM 23.5 °F - 21.7 °F 93% 29.58 in 10.0 mi Calm Calm - N/A   Mostly Cloudy
2:35 AM 23.7 °F 19.3 °F 21.7 °F 92% 29.58 in 10.0 mi East 3.5 mph - N/A   Mostly Cloudy
2:55 AM 23.9 °F 19.5 °F 21.7 °F 91% 29.59 in 10.0 mi East 3.5 mph - N/A   Mostly Cloudy
3:15 AM 23.9 °F 19.5 °F 21.7 °F 91% 29.59 in 10.0 mi ENE 3.5 mph - N/A   Mostly Cloudy
3:36 AM 23.9 °F 19.5 °F 21.7 °F 91% 29.59 in 7.0 mi East 3.5 mph - N/A   Scattered Clouds
3:55 AM 23.7 °F 19.3 °F 21.7 °F 92% 29.58 in 5.0 mi ENE 3.5 mph - N/A   Mostly Cloudy
4:15 AM 23.5 °F - 22.1 °F 94% 29.58 in 4.0 mi Calm Calm - N/A   Overcast
4:35 AM 23.4 °F - 21.9 °F 94% 29.58 in 5.0 mi Calm Calm - N/A   Overcast
4:55 AM 23.0 °F - 22.1 °F 96% 29.59 in 7.0 mi Calm Calm - N/A   Overcast
5:16 AM 23.4 °F - 22.5 °F 96% 29.59 in 7.0 mi Calm Calm - N/A   Overcast
5:35 AM 22.5 °F - 21.0 °F 94% 29.59 in 7.0 mi Calm Calm - N/A   Overcast
5:55 AM 22.8 °F - 21.9 °F 96% 29.60 in 7.0 mi Calm Calm - N/A   Overcast
6:15 AM 21.9 °F - 21.2 °F 97% 29.60 in 5.0 mi Calm Calm - N/A   Overcast
6:18 AM 21.9 °F - 21.2 °F 97% 29.60 in 5.0 mi Calm Calm - N/A   Overcast
6:59 AM 21.2 °F - 19.4 °F 93% 29.61 in 3.0 mi Calm Calm - N/A Snow Light Snow
7:18 AM 21.2 °F - 19.4 °F 93% 29.61 in 3.0 mi Calm Calm - N/A Snow Light Snow
7:38 AM 21.2 °F - 19.4 °F 93% 29.61 in 4.0 mi Calm Calm - N/A   Scattered Clouds
7:58 AM 19.4 °F - 17.6 °F 93% 29.62 in 4.0 mi Calm Calm - N/A   Scattered Clouds
8:18 AM 21.2 °F - 19.4 °F 93% 29.62 in 3.0 mi Calm Calm - N/A Snow Light Snow
8:38 AM 21.2 °F 14.9 °F 21.2 °F 100% 29.63 in 2.0 mi SW 4.6 mph - N/A Snow Light Snow
8:49 AM 21.7 °F 17.0 °F 20.8 °F 96% 29.63 in 1.5 mi SW 3.5 mph - N/A Snow Light Snow
8:55 AM 21.9 °F 17.2 °F 20.8 °F 96% 29.64 in 1.5 mi WSW 3.5 mph - N/A Snow Light Snow
9:15 AM 23.0 °F 18.4 °F 21.2 °F 93% 29.64 in 2.5 mi West 3.5 mph - N/A Snow Light Snow
9:35 AM 23.2 °F 18.7 °F 21.2 °F 92% 29.65 in 3.0 mi West 3.5 mph - N/A Snow Light Snow
9:52 AM 23.2 °F 18.7 °F 21.4 °F 93% 29.66 in 5.0 mi WNW 3.5 mph - N/A Snow Light Snow
10:15 AM 24.8 °F 20.5 °F 22.5 °F 91% 29.66 in 7.0 mi WNW 3.5 mph - N/A   Overcast
10:35 AM 25.3 °F 18.5 °F 22.8 °F 90% 29.67 in 7.0 mi West 5.8 mph - N/A   Overcast
10:55 AM 26.1 °F 20.5 °F 23.0 °F 88% 29.67 in 7.0 mi WNW 4.6 mph - N/A Snow Light Snow
11:15 AM 26.1 °F 20.5 °F 23.0 °F 88% 29.67 in 4.0 mi NW 4.6 mph - N/A Snow Light Snow
11:35 AM 26.6 °F 20.0 °F 23.5 °F 88% 29.67 in 7.0 mi WNW 5.8 mph - N/A Snow Light Snow
11:55 AM 27.1 °F 20.7 °F 24.3 °F 89% 29.67 in 7.0 mi WNW 5.8 mph - N/A   Mostly Cloudy
12:16 PM 27.3 °F 22.0 °F 24.6 °F 90% 29.68 in 7.0 mi NNW 4.6 mph - N/A   Overcast
12:35 PM 26.6 °F 19.1 °F 24.3 °F 91% 29.67 in 10.0 mi NW 6.9 mph - N/A   Mostly Cloudy
12:55 PM 26.6 °F 20.0 °F 24.4 °F 92% 29.67 in 1.0 mi NW 5.8 mph - N/A Snow Light Snow
1:15 PM 27.5 °F 23.6 °F 24.8 °F 90% 29.68 in 1.5 mi WNW 3.5 mph - N/A Snow Light Snow
1:35 PM 28.4 °F 21.2 °F 25.2 °F 88% 29.67 in 1.5 mi WNW 6.9 mph - N/A Snow Light Snow
1:56 PM 28.9 °F 25.2 °F 25.0 °F 85% 29.67 in 1.8 mi WNW 3.5 mph - N/A Snow Light Snow
2:15 PM 28.4 °F 23.3 °F 25.2 °F 88% 29.68 in 3.0 mi NNW 4.6 mph - N/A Snow Light Snow
2:35 PM 28.2 °F 23.1 °F 24.1 °F 84% 29.68 in 2.5 mi NW 4.6 mph - N/A Snow Light Snow
2:56 PM 28.4 °F 19.7 °F 25.3 °F 88% 29.69 in 2.0 mi WNW 9.2 mph - N/A Snow Light Snow
3:15 PM 28.2 °F 21.0 °F 24.6 °F 86% 29.69 in 3.0 mi WNW 6.9 mph - N/A Snow Light Snow
3:35 PM 28.4 °F 20.4 °F 24.3 °F 84% 29.70 in 4.0 mi West 8.1 mph - N/A Snow Light Snow
3:55 PM 28.8 °F 22.6 °F 24.4 °F 84% 29.71 in 5.0 mi WNW 5.8 mph - N/A Snow Light Snow
4:15 PM 28.4 °F 20.4 °F 24.3 °F 84% 29.71 in 10.0 mi WNW 8.1 mph - N/A   Mostly Cloudy
4:35 PM 28.0 °F 18.6 °F 24.6 °F 87% 29.72 in 7.0 mi West 10.4 mph - N/A Snow Light Snow
4:55 PM 27.7 °F 18.2 °F 24.4 °F 88% 29.73 in 7.0 mi West 10.4 mph - N/A   Overcast
5:15 PM 27.1 °F 17.5 °F 23.9 °F 88% 29.73 in 10.0 mi WNW 10.4 mph - N/A   Overcast
5:35 PM 26.4 °F 16.6 °F 23.2 °F 88% 29.75 in 10.0 mi WNW 10.4 mph - N/A   Overcast
5:55 PM 25.5 °F 14.3 °F 22.1 °F 87% 29.75 in 10.0 mi WNW 12.7 mph - N/A   Overcast
6:15 PM 24.6 °F 13.8 °F 21.2 °F 87% 29.76 in 10.0 mi WNW 11.5 mph - N/A   Overcast
6:35 PM 23.9 °F 12.9 °F 20.1 °F 85% 29.77 in 10.0 mi WNW 11.5 mph - N/A   Overcast
6:55 PM 23.0 °F 14.7 °F 19.4 °F 86% 29.77 in 10.0 mi West 6.9 mph - N/A   Overcast
7:15 PM 22.1 °F 12.0 °F 18.7 °F 87% 29.79 in 10.0 mi WNW 9.2 mph - N/A   Overcast
7:35 PM 21.2 °F 10.1 °F 16.7 °F 83% 29.80 in 10.0 mi WNW 10.4 mph - N/A   Mostly Cloudy
7:55 PM 21.0 °F 9.3 °F 16.5 °F 83% 29.80 in 10.0 mi WNW 11.5 mph - N/A   Mostly Cloudy
8:16 PM 20.7 °F 11.0 °F 16.2 °F 83% 29.80 in 10.0 mi WNW 8.1 mph 16.1 mph N/A   Overcast
8:35 PM 19.4 °F 11.5 °F 15.4 °F 85% 29.80 in 10.0 mi WNW 5.8 mph - N/A   Mostly Cloudy
8:55 PM 18.0 °F 11.1 °F 14.4 °F 86% 29.80 in 10.0 mi WNW 4.6 mph - N/A   Mostly Cloudy
9:15 PM 18.5 °F 11.7 °F 15.3 °F 87% 29.80 in 10.0 mi WNW 4.6 mph - N/A   Overcast
9:35 PM 19.4 °F 14.3 °F 15.8 °F 86% 29.80 in 10.0 mi West 3.5 mph - N/A   Mostly Cloudy
9:55 PM 19.4 °F 14.3 °F 16.3 °F 88% 29.80 in 10.0 mi West 3.5 mph - N/A   Scattered Clouds
10:15 PM 19.9 °F 13.4 °F 17.1 °F 89% 29.80 in 10.0 mi West 4.6 mph - N/A   Scattered Clouds
10:35 PM 19.9 °F 13.4 °F 16.9 °F 88% 29.80 in 10.0 mi West 4.6 mph - N/A   Scattered Clouds
10:55 PM 19.8 °F 11.9 °F 16.5 °F 87% 29.80 in 10.0 mi West 5.8 mph - N/A   Scattered Clouds
11:15 PM 18.5 °F 11.7 °F 15.3 °F 87% 29.80 in 10.0 mi West 4.6 mph - N/A   Scattered Clouds
11:35 PM 16.9 °F 11.5 °F 14.2 °F 89% 29.80 in 10.0 mi SW 3.5 mph - N/A   Clear
11:55 PM 14.7 °F 7.3 °F 13.1 °F 93% 29.79 in 10.0 mi WSW 4.6 mph - N/A   Clear